sat.trackr.live / text

‹ back to catalog

KUIPER-00096

NORAD 65135 · 2025-171D

PAYLOAD ACTIVE UNKNOWN

§ Identity

Operator
Country
US
Launch date
2025-08-11
Launch site
AFETR
Launch vehicle
Mass (kg)
RCS (m²)

External: N2YO · Heavens-Above · Gunter

§ Orbital elements

Epoch: 2026-05-25T01:17:16.796832Z

Period
97.30 min
Inclination
51.8976°
Eccentricity
0.0000391
Mean motion
14.79930290 rev/d
Perigee alt
629.3 km
Apogee alt
629.8 km
Semi-major
7,007.7 km
B*
2.8836e-4
RAAN
180.3950°
Arg perigee
77.1575°
Mean anomaly
282.9431°
Rev number
4,420

§ Raw data

KUIPER-000961 65135U 25171D   26145.05366663  .00001978  00000+0  28836-3 0  99932 65135  51.8976 180.3950 0000391  77.1575 282.9431 14.79930290 44202

JSON: /api/v1/satellites/65135 · /tle

For live sub-satellite position, see the globe view (requires WebGL).

§ Visibility from observer

Set your observer location to see the next 7 days of passes ≥ 10°. The values pass through the URL so the page stays shareable.

No JS? Fill the form by hand. The geolocation button needs JavaScript.